Satellite: CO-66
Catalog number: 32791
Epoch time:      11216.83463608
Element set:      50
Inclination:      097.8446 deg
RA of node:       279.6644 deg
Eccentricity:    0.0016510
Arg of perigee:   020.7766 deg
Mean anomaly:     339.4086 deg
Mean motion:   14.82198304 rev/day
Decay rate:       5.63e-06 rev/day^2
Epoch rev:           17671
Checksum:              324

Satellite: RS-30
Catalog number: 32953
Epoch time:      11216.68221980
Element set:     964
Inclination:      082.5041 deg
RA of node:       132.5817 deg
Eccentricity:    0.0017795
Arg of perigee:   284.4073 deg
Mean anomaly:     075.5028 deg
Mean motion:   12.43014353 rev/day
Decay rate:        1.0e-07 rev/day^2
Epoch rev:           14511
Checksum:              272

Satellite: TACSAT-3
Catalog number: 35001
Epoch time:      11215.48647718
Element set:    0673
Inclination:      040.4530 deg
RA of node:       245.2163 deg
Eccentricity:    0.0021367
Arg of perigee:   207.0918 deg
Mean anomaly:     152.8785 deg
Mean motion:   15.50303064 rev/day
Decay rate:     1.2430e-04 rev/day^2
Epoch rev:           12442
Checksum:              262

Satellite: PHARMSAT
Catalog number: 35002
Epoch time:      11215.46981042
Element set:    0623
Inclination:      040.4691 deg
RA of node:       243.3668 deg
Eccentricity:    0.0022812
Arg of perigee:   213.9177 deg
Mean anomaly:     146.0183 deg
Mean motion:   15.49660152 rev/day
Decay rate:     1.0168e-04 rev/day^2
Epoch rev:           12444
Checksum:              266

Satellite: HAWKSAT1
Catalog number: 35003
Epoch time:      11215.38782880
Element set:    0711
Inclination:      040.4517 deg
RA of node:       206.3288 deg
Eccentricity:    0.0018717
Arg of perigee:   228.4582 deg
Mean anomaly:     131.4636 deg
Mean motion:   15.72068429 rev/day
Decay rate:     8.1698e-04 rev/day^2
Epoch rev:           12484
Checksum:              306

Satellite: CP6
Catalog number: 35004
Epoch time:      11215.31599524
Element set:    0713
Inclination:      040.4490 deg
RA of node:       193.7819 deg
Eccentricity:    0.0017616
Arg of perigee:   222.6228 deg
Mean anomaly:     137.3253 deg
Mean motion:   15.84980464 rev/day
Decay rate:    1.99582e-03 rev/day^2
Epoch rev:           12496
Checksum:              316

Satellite: METEOR-M
Catalog number: 35865
Epoch time:      11216.77784874
Element set:     609
Inclination:      098.7036 deg
RA of node:       271.2685 deg
Eccentricity:    0.0001666
Arg of perigee:   262.9906 deg
Mean anomaly:     097.1061 deg
Mean motion:   14.21840814 rev/day
Decay rate:       1.76e-06 rev/day^2
Epoch rev:            9749
Checksum:              332

Satellite: RS-38
Catalog number: 35869
Epoch time:      11216.77190737
Element set:     599
Inclination:      098.6992 deg
RA of node:       271.2949 deg
Eccentricity:    0.0003878
Arg of perigee:   254.6504 deg
Mean anomaly:     105.4204 deg
Mean motion:   14.22017859 rev/day
Decay rate:       1.77e-06 rev/day^2
Epoch rev:            9750
Checksum:              347

/EX


_______________________________________________
Via the Keps mailing list courtesy of AMSAT-NA
http://amsat.org/mailman/listinfo/keps

--- ViaMAIL!/WC v1.60d
 * Origin: Chowdanet (401-724-4410) telnet://chowdanet.com  (1:323/120)